Tabellarische Ansicht des 14.2.2012


Die einzelnen Werte des Tages

Uhrzeit Temperatur Luftdruck Luftfeuchte Wind Hi-Wind Taupunkt THW Index Wind Chill Heat Index Solar- strahlung Regen

00:00

1.2 C

1012.6 hpa

93 %

1.6 km/h aus 117

4.8 km/h aus SSW

0.2 C

1.2 C

1.2 C

1.2 C

0 W/m

0.00 mm

00:05

1.3 C

1012.6 hpa

93 %

1.6 km/h aus 115

4.8 km/h aus SSW

0.3 C

1.2 C

1.3 C

1.2 C

0 W/m

0.00 mm

00:10

1.3 C

1012.6 hpa

93 %

1.6 km/h aus 117

3.2 km/h aus SSW

0.3 C

1.2 C

1.3 C

1.2 C

0 W/m

0.00 mm

00:15

1.3 C

1012.8 hpa

93 %

0.0 km/h aus 117

4.8 km/h aus SSW

0.3 C

1.2 C

1.3 C

1.2 C

0 W/m

0.00 mm

00:20

1.3 C

1012.8 hpa

93 %

3.2 km/h aus 117

8.0 km/h aus SSW

0.3 C

0.8 C

0.9 C

1.3 C

0 W/m

0.00 mm

00:25

1.3 C

1012.8 hpa

93 %

1.6 km/h aus 116

6.4 km/h aus SSW

0.3 C

1.3 C

1.3 C

1.3 C

0 W/m

0.00 mm

00:30

1.3 C

1012.8 hpa

93 %

1.6 km/h aus 118

4.8 km/h aus SSW

0.3 C

1.3 C

1.3 C

1.3 C

0 W/m

0.00 mm

00:35

1.3 C

1012.8 hpa

93 %

1.6 km/h aus 115

6.4 km/h aus SSW

0.3 C

1.3 C

1.3 C

1.3 C

0 W/m

0.00 mm

00:40

1.3 C

1012.8 hpa

93 %

1.6 km/h aus 116

4.8 km/h aus SSW

0.3 C

1.3 C

1.3 C

1.3 C

0 W/m

0.00 mm

00:45

1.3 C

1012.7 hpa

93 %

1.6 km/h aus 117

6.4 km/h aus SSW

0.3 C

1.3 C

1.3 C

1.3 C

0 W/m

0.00 mm

00:50

1.3 C

1012.7 hpa

93 %

1.6 km/h aus 117

4.8 km/h aus SSW

0.3 C

1.3 C

1.3 C

1.3 C

0 W/m

0.00 mm

00:55

1.3 C

1012.7 hpa

93 %

3.2 km/h aus 117

8.0 km/h aus SSW

0.3 C

0.8 C

0.9 C

1.3 C

0 W/m

0.00 mm

01:00

1.3 C

1012.7 hpa

93 %

1.6 km/h aus 116

6.4 km/h aus SSW

0.3 C

1.3 C

1.3 C

1.3 C

0 W/m

0.00 mm

01:05

1.3 C

1012.7 hpa

93 %

1.6 km/h aus 117

3.2 km/h aus SSW

0.3 C

1.3 C

1.3 C

1.3 C

0 W/m

0.00 mm

01:10

1.3 C

1012.7 hpa

93 %

1.6 km/h aus 117

4.8 km/h aus SSW

0.3 C

1.3 C

1.3 C

1.3 C

0 W/m

0.00 mm

01:15

1.3 C

1012.7 hpa

93 %

1.6 km/h aus 116

6.4 km/h aus SSW

0.3 C

1.3 C

1.3 C

1.3 C

0 W/m

0.00 mm

01:20

1.3 C

1012.7 hpa

93 %

4.8 km/h aus 117

9.7 km/h aus SSW

0.3 C

-0.1 C

0.0 C

1.3 C

0 W/m

0.00 mm

01:25

1.3 C

1012.7 hpa

93 %

6.4 km/h aus 116

9.7 km/h aus SSW

0.3 C

-0.7 C

-0.7 C

1.3 C

0 W/m

0.00 mm

01:30

1.3 C

1012.6 hpa

93 %

6.4 km/h aus 117

9.7 km/h aus SSW

0.3 C

-0.7 C

-0.7 C

1.3 C

0 W/m

0.00 mm

01:35

1.3 C

1012.6 hpa

93 %

6.4 km/h aus 118

9.7 km/h aus SSW

0.3 C

-0.7 C

-0.7 C

1.3 C

0 W/m

0.00 mm

01:40

1.3 C

1012.6 hpa

93 %

3.2 km/h aus 117

8.0 km/h aus SSW

0.3 C

0.8 C

0.9 C

1.3 C

0 W/m

0.00 mm

01:45

1.3 C

1012.6 hpa

93 %

0.0 km/h aus 117

1.6 km/h aus SSW

0.3 C

1.3 C

1.3 C

1.3 C

0 W/m

0.00 mm

01:50

1.3 C

1012.6 hpa

93 %

0.0 km/h aus 116

1.6 km/h aus SSW

0.3 C

1.3 C

1.3 C

1.3 C

0 W/m

0.00 mm

01:55

1.3 C

1012.6 hpa

93 %

0.0 km/h aus 117

1.6 km/h aus SSW

0.3 C

1.3 C

1.3 C

1.3 C

0 W/m

0.00 mm

02:00

1.3 C

1012.7 hpa

93 %

0.0 km/h aus 116

3.2 km/h aus SSW

0.3 C

1.3 C

1.3 C

1.3 C

0 W/m

0.00 mm

02:05

1.3 C

1012.7 hpa

93 %

1.6 km/h aus 117

4.8 km/h aus SSW

0.3 C

1.3 C

1.3 C

1.3 C

0 W/m

0.00 mm

02:10

1.3 C

1012.7 hpa

93 %

1.6 km/h aus 117

6.4 km/h aus SSW

0.3 C

1.3 C

1.3 C

1.3 C

0 W/m

0.00 mm

02:15

1.3 C

1012.6 hpa

93 %

3.2 km/h aus 117

6.4 km/h aus SSW

0.3 C

0.8 C

0.8 C

1.2 C

0 W/m

0.00 mm

02:20

1.3 C

1012.6 hpa

93 %

3.2 km/h aus 117

6.4 km/h aus SSW

0.3 C

0.8 C

0.8 C

1.2 C

0 W/m

0.00 mm

02:25

1.3 C

1012.6 hpa

93 %

3.2 km/h aus 116

8.0 km/h aus SSW

0.3 C

0.8 C

0.8 C

1.2 C

0 W/m

0.00 mm

02:30

1.3 C

1012.6 hpa

93 %

3.2 km/h aus 117

8.0 km/h aus SSW

0.3 C

0.8 C

0.8 C

1.2 C

0 W/m

0.00 mm

02:35

1.3 C

1012.6 hpa

93 %

4.8 km/h aus 117

8.0 km/h aus SSW

0.3 C

-0.1 C

-0.1 C

1.2 C

0 W/m

0.00 mm

02:40

1.3 C

1012.6 hpa

93 %

4.8 km/h aus 118

8.0 km/h aus SSW

0.3 C

-0.1 C

-0.1 C

1.2 C

0 W/m

0.00 mm

02:45

1.3 C

1012.2 hpa

93 %

3.2 km/h aus 116

6.4 km/h aus SSW

0.3 C

0.8 C

0.8 C

1.2 C

0 W/m

0.00 mm

02:50

1.3 C

1012.2 hpa

93 %

3.2 km/h aus 117

6.4 km/h aus SSW

0.3 C

0.8 C

0.8 C

1.2 C

0 W/m

0.00 mm

02:55

1.2 C

1012.2 hpa

93 %

4.8 km/h aus 117

9.7 km/h aus SSW

0.2 C

-0.2 C

-0.1 C

1.2 C

0 W/m

0.00 mm

03:00

1.2 C

1012.1 hpa

93 %

4.8 km/h aus 117

9.7 km/h aus SSW

0.2 C

-0.2 C

-0.1 C

1.2 C

0 W/m

0.00 mm

03:05

1.2 C

1012.1 hpa

93 %

4.8 km/h aus 116

8.0 km/h aus SSW

0.2 C

-0.2 C

-0.1 C

1.2 C

0 W/m

0.00 mm

03:10

1.2 C

1012.1 hpa

93 %

6.4 km/h aus 117

9.7 km/h aus SSW

0.2 C

-0.8 C

-0.8 C

1.2 C

0 W/m

0.00 mm

03:15

1.2 C

1012.1 hpa

93 %

4.8 km/h aus 117

8.0 km/h aus SSW

0.2 C

-0.2 C

-0.2 C

1.1 C

0 W/m

0.00 mm

03:20

1.2 C

1012.1 hpa

93 %

3.2 km/h aus 117

8.0 km/h aus SSW

0.2 C

0.7 C

0.7 C

1.1 C

0 W/m

0.00 mm

03:25

1.1 C

1012.1 hpa

93 %

4.8 km/h aus 116

8.0 km/h aus SSW

0.1 C

-0.3 C

-0.3 C

1.0 C

0 W/m

0.00 mm

03:30

1.1 C

1012.1 hpa

93 %

3.2 km/h aus 116

8.0 km/h aus SSW

0.1 C

0.6 C

0.6 C

1.0 C

0 W/m

0.00 mm

03:35

1.0 C

1012.1 hpa

93 %

3.2 km/h aus 117

8.0 km/h aus SSW

0.0 C

0.4 C

0.5 C

0.9 C

0 W/m

0.00 mm

03:40

0.9 C

1012.1 hpa

93 %

4.8 km/h aus 117

9.7 km/h aus SSW

-0.1 C

-0.5 C

-0.4 C

0.9 C

0 W/m

0.00 mm

03:45

0.9 C

1012.1 hpa

93 %

4.8 km/h aus 117

6.4 km/h aus SSW

-0.1 C

-0.6 C

-0.5 C

0.8 C

0 W/m

0.00 mm

03:50

0.9 C

1012.1 hpa

93 %

4.8 km/h aus 117

9.7 km/h aus SSW

-0.1 C

-0.6 C

-0.5 C

0.8 C

0 W/m

0.00 mm

03:55

0.9 C

1012.1 hpa

93 %

4.8 km/h aus 117

8.0 km/h aus SSW

-0.1 C

-0.6 C

-0.5 C

0.8 C

0 W/m

0.00 mm

04:00

0.8 C

1012.0 hpa

93 %

3.2 km/h aus 116

6.4 km/h aus SSW

-0.2 C

0.3 C

0.3 C

0.8 C

0 W/m

0.00 mm

04:05

0.8 C

1012.0 hpa

93 %

3.2 km/h aus 117

6.4 km/h aus SSW

-0.2 C

0.3 C

0.3 C

0.8 C

0 W/m

0.00 mm

04:10

0.8 C

1012.0 hpa

93 %

3.2 km/h aus 117

8.0 km/h aus SSW

-0.2 C

0.3 C

0.3 C

0.8 C

0 W/m

0.00 mm

04:15

0.8 C

1012.0 hpa

93 %

3.2 km/h aus 116

6.4 km/h aus SSW

-0.2 C

0.3 C

0.3 C

0.8 C

0 W/m

0.00 mm

04:20

0.8 C

1012.0 hpa

93 %

4.8 km/h aus 117

8.0 km/h aus SSW

-0.2 C

-0.7 C

-0.6 C

0.7 C

0 W/m

0.00 mm

04:25

0.8 C

1012.0 hpa

93 %

4.8 km/h aus 116

6.4 km/h aus SSW

-0.2 C

-0.7 C

-0.6 C

0.7 C

0 W/m

0.00 mm

04:30

0.8 C

1011.7 hpa

93 %

6.4 km/h aus 117

9.7 km/h aus SSW

-0.2 C

-1.3 C

-1.3 C

0.7 C

0 W/m

0.00 mm

04:35

0.8 C

1011.7 hpa

93 %

8.0 km/h aus 117

14.5 km/h aus S

-0.2 C

-1.9 C

-1.8 C

0.7 C

0 W/m

0.00 mm

04:40

0.8 C

1011.7 hpa

93 %

4.8 km/h aus 117

11.3 km/h aus S

-0.2 C

-0.7 C

-0.6 C

0.7 C

0 W/m

0.00 mm

04:45

0.8 C

1011.8 hpa

93 %

4.8 km/h aus 117

8.0 km/h aus S

-0.2 C

-0.7 C

-0.6 C

0.7 C

0 W/m

0.00 mm

04:50

0.8 C

1011.8 hpa

93 %

3.2 km/h aus 118

6.4 km/h aus S

-0.2 C

0.2 C

0.3 C

0.7 C

0 W/m

0.00 mm

04:55

0.7 C

1011.8 hpa

93 %

4.8 km/h aus 117

9.7 km/h aus S

-0.3 C

-0.7 C

-0.7 C

0.7 C

0 W/m

0.00 mm

05:00

0.8 C

1012.0 hpa

93 %

4.8 km/h aus 116

9.7 km/h aus S

-0.2 C

-0.7 C

-0.6 C

0.7 C

0 W/m

0.00 mm

05:05

0.8 C

1012.0 hpa

93 %

6.4 km/h aus 116

11.3 km/h aus S

-0.2 C

-1.3 C

-1.3 C

0.7 C

0 W/m

0.00 mm

05:10

0.8 C

1012.0 hpa

93 %

4.8 km/h aus 117

8.0 km/h aus S

-0.2 C

-0.7 C

-0.6 C

0.7 C

0 W/m

0.00 mm

05:15

0.8 C

1011.9 hpa

93 %

6.4 km/h aus 117

9.7 km/h aus S

-0.2 C

-1.3 C

-1.3 C

0.7 C

0 W/m

0.00 mm

05:20

0.8 C

1011.9 hpa

93 %

6.4 km/h aus 117

9.7 km/h aus S

-0.2 C

-1.3 C

-1.3 C

0.7 C

0 W/m

0.00 mm

05:25

0.8 C

1011.9 hpa

93 %

6.4 km/h aus 116

11.3 km/h aus SSW

-0.2 C

-1.3 C

-1.3 C

0.7 C

0 W/m

0.00 mm

05:30

0.8 C

1011.6 hpa

93 %

9.7 km/h aus 116

17.7 km/h aus S

-0.2 C

-2.3 C

-2.3 C

0.7 C

0 W/m

0.00 mm

05:35

0.8 C

1011.6 hpa

93 %

8.0 km/h aus 116

14.5 km/h aus S

-0.2 C

-1.8 C

-1.8 C

0.8 C

0 W/m

0.00 mm

05:40

0.8 C

1011.6 hpa

93 %

6.4 km/h aus 117

14.5 km/h aus S

-0.2 C

-1.3 C

-1.2 C

0.8 C

0 W/m

0.00 mm

05:45

0.8 C

1011.6 hpa

93 %

6.4 km/h aus 116

11.3 km/h aus SSW

-0.2 C

-1.3 C

-1.2 C

0.8 C

0 W/m

0.00 mm

05:50

0.8 C

1011.6 hpa

94 %

9.7 km/h aus 117

17.7 km/h aus S

0.0 C

-2.3 C

-2.2 C

0.8 C

0 W/m

0.00 mm

05:55

0.9 C

1011.6 hpa

94 %

9.7 km/h aus 116

17.7 km/h aus S

0.0 C

-2.2 C

-2.2 C

0.8 C

0 W/m

0.00 mm

06:00

0.9 C

1011.6 hpa

94 %

8.0 km/h aus 117

16.1 km/h aus SSW

0.0 C

-1.7 C

-1.7 C

0.8 C

0 W/m

0.00 mm

06:05

0.9 C

1011.6 hpa

94 %

4.8 km/h aus 117

9.7 km/h aus S

0.1 C

-0.5 C

-0.4 C

0.9 C

0 W/m

0.00 mm

06:10

0.9 C

1011.6 hpa

94 %

4.8 km/h aus 116

9.7 km/h aus SSW

0.1 C

-0.5 C

-0.4 C

0.9 C

0 W/m

0.00 mm

06:15

1.0 C

1011.6 hpa

94 %

4.8 km/h aus 117

9.7 km/h aus SSW

0.1 C

-0.4 C

-0.3 C

0.9 C

0 W/m

0.00 mm

06:20

1.0 C

1011.6 hpa

94 %

4.8 km/h aus 117

8.0 km/h aus SSW

0.1 C

-0.4 C

-0.3 C

0.9 C

0 W/m

0.00 mm

06:25

1.1 C

1011.6 hpa

94 %

6.4 km/h aus 116

14.5 km/h aus SW

0.2 C

-1.0 C

-0.9 C

1.0 C

0 W/m

0.00 mm

06:30

1.1 C

1011.6 hpa

94 %

6.4 km/h aus 117

17.7 km/h aus SSW

0.2 C

-1.0 C

-0.9 C

1.0 C

0 W/m

0.00 mm

06:35

1.1 C

1011.6 hpa

94 %

6.4 km/h aus 117

16.1 km/h aus SSW

0.3 C

-0.9 C

-0.9 C

1.1 C

0 W/m

0.00 mm

06:40

1.1 C

1011.6 hpa

94 %

6.4 km/h aus 117

14.5 km/h aus SSW

0.3 C

-0.9 C

-0.9 C

1.1 C

0 W/m

0.00 mm

06:45

1.2 C

1011.6 hpa

94 %

6.4 km/h aus 117

11.3 km/h aus SSW

0.3 C

-0.9 C

-0.8 C

1.1 C

0 W/m

0.00 mm

06:50

1.2 C

1011.6 hpa

94 %

6.4 km/h aus 117

14.5 km/h aus S

0.3 C

-0.9 C

-0.8 C

1.1 C

0 W/m

0.00 mm

06:55

1.2 C

1011.6 hpa

94 %

6.4 km/h aus 117

12.9 km/h aus SSW

0.3 C

-0.9 C

-0.8 C

1.1 C

0 W/m

0.00 mm

07:00

1.2 C

1011.5 hpa

94 %

6.4 km/h aus 116

16.1 km/h aus S

0.3 C

-0.9 C

-0.8 C

1.1 C

0 W/m

0.00 mm

07:05

1.2 C

1011.5 hpa

94 %

8.0 km/h aus 116

16.1 km/h aus SSW

0.3 C

-1.4 C

-1.4 C

1.1 C

0 W/m

0.00 mm

07:10

1.2 C

1011.5 hpa

94 %

9.7 km/h aus 117

16.1 km/h aus SW

0.4 C

-1.8 C

-1.7 C

1.2 C

0 W/m

0.00 mm

07:15

1.2 C

1011.5 hpa

94 %

6.4 km/h aus 117

11.3 km/h aus S

0.4 C

-0.8 C

-0.8 C

1.2 C

0 W/m

0.00 mm

07:20

1.2 C

1011.5 hpa

94 %

8.0 km/h aus 117

11.3 km/h aus SW

0.4 C

-1.3 C

-1.3 C

1.2 C

0 W/m

0.00 mm

07:25

1.2 C

1011.5 hpa

94 %

6.4 km/h aus 116

12.9 km/h aus SSW

0.4 C

-0.8 C

-0.8 C

1.2 C

0 W/m

0.00 mm

07:30

1.2 C

1011.5 hpa

94 %

8.0 km/h aus 117

16.1 km/h aus SSW

0.4 C

-1.3 C

-1.3 C

1.2 C

0 W/m

0.00 mm

07:35

1.2 C

1011.5 hpa

94 %

8.0 km/h aus 117

14.5 km/h aus SSW

0.4 C

-1.3 C

-1.3 C

1.2 C

0 W/m

0.00 mm

07:40

1.2 C

1011.5 hpa

94 %

6.4 km/h aus 115

11.3 km/h aus SSW

0.4 C

-0.8 C

-0.8 C

1.2 C

0 W/m

0.00 mm

07:45

1.2 C

1011.5 hpa

94 %

6.4 km/h aus 117

11.3 km/h aus SSW

0.4 C

-0.8 C

-0.8 C

1.2 C

0 W/m

0.00 mm

07:50

1.3 C

1011.5 hpa

94 %

6.4 km/h aus 117

14.5 km/h aus SW

0.4 C

-0.8 C

-0.7 C

1.2 C

0 W/m

0.00 mm

07:55

1.3 C

1011.5 hpa

94 %

6.4 km/h aus 117

14.5 km/h aus SW

0.4 C

-0.8 C

-0.7 C

1.2 C

0 W/m

0.00 mm

08:00

1.2 C

1011.4 hpa

94 %

6.4 km/h aus 117

16.1 km/h aus SSW

0.4 C

-0.8 C

-0.8 C

1.2 C

0 W/m

0.00 mm

08:05

1.2 C

1011.4 hpa

94 %

8.0 km/h aus 117

16.1 km/h aus SSW

0.4 C

-1.3 C

-1.3 C

1.2 C

0 W/m

0.00 mm

08:10

1.2 C

1011.4 hpa

94 %

6.4 km/h aus 117

14.5 km/h aus SSW

0.4 C

-0.8 C

-0.8 C

1.2 C

0 W/m

0.00 mm

08:15

1.2 C

1011.4 hpa

94 %

6.4 km/h aus 117

14.5 km/h aus SW

0.4 C

-0.8 C

-0.8 C

1.2 C

0 W/m

0.00 mm

08:20

1.2 C

1011.4 hpa

94 %

6.4 km/h aus 116

11.3 km/h aus SSW

0.4 C

-0.8 C

-0.8 C

1.2 C

0 W/m

0.00 mm

08:25

1.2 C

1011.4 hpa

94 %

6.4 km/h aus 117

16.1 km/h aus SSW

0.4 C

-0.8 C

-0.8 C

1.2 C

0 W/m

0.00 mm

08:30

1.2 C

1011.5 hpa

94 %

6.4 km/h aus 117

11.3 km/h aus SSW

0.3 C

-0.9 C

-0.8 C

1.1 C

0 W/m

0.00 mm

08:35

1.2 C

1011.5 hpa

94 %

6.4 km/h aus 117

12.9 km/h aus SW

0.3 C

-0.9 C

-0.8 C

1.1 C

0 W/m

0.00 mm

08:40

1.2 C

1011.5 hpa

94 %

4.8 km/h aus 117

9.7 km/h aus SSW

0.3 C

-0.2 C

-0.2 C

1.1 C

0 W/m

0.00 mm

08:45

1.1 C

1011.5 hpa

94 %

8.0 km/h aus 115

11.3 km/h aus SSW

0.3 C

-1.5 C

-1.4 C

1.1 C

0 W/m

0.00 mm

08:50

1.1 C

1011.5 hpa

94 %

8.0 km/h aus 116

11.3 km/h aus SW

0.3 C

-1.5 C

-1.4 C

1.1 C

0 W/m

0.25 mm

08:55

1.1 C

1011.5 hpa

94 %

6.4 km/h aus 116

11.3 km/h aus SSW

0.3 C

-0.9 C

-0.9 C

1.1 C

0 W/m

0.00 mm

09:00

1.1 C

1011.5 hpa

94 %

4.8 km/h aus 117

9.7 km/h aus SSW

0.2 C

-0.3 C

-0.3 C

1.0 C

0 W/m

0.00 mm

09:05

1.1 C

1011.5 hpa

94 %

6.4 km/h aus 117

14.5 km/h aus SSW

0.2 C

-1.0 C

-0.9 C

1.0 C

0 W/m

0.00 mm

09:10

1.1 C

1011.5 hpa

94 %

6.4 km/h aus 117

11.3 km/h aus SSW

0.2 C

-1.0 C

-0.9 C

1.0 C

0 W/m

0.00 mm

09:15

1.1 C

1011.6 hpa

94 %

3.2 km/h aus 117

9.7 km/h aus SSW

0.2 C

0.6 C

0.6 C

1.0 C

0 W/m

0.00 mm

09:20

1.1 C

1011.6 hpa

94 %

4.8 km/h aus 117

9.7 km/h aus SSW

0.2 C

-0.3 C

-0.3 C

1.0 C

0 W/m

0.00 mm

09:25

1.1 C

1011.6 hpa

94 %

4.8 km/h aus 117

6.4 km/h aus SSW

0.2 C

-0.3 C

-0.3 C

1.0 C

0 W/m

0.00 mm

09:30

1.1 C

1011.7 hpa

94 %

4.8 km/h aus 117

8.0 km/h aus SSW

0.3 C

-0.3 C

-0.2 C

1.1 C

0 W/m

0.00 mm

09:35

1.2 C

1011.7 hpa

94 %

4.8 km/h aus 115

9.7 km/h aus SSW

0.3 C

-0.2 C

-0.2 C

1.1 C

0 W/m

0.00 mm

09:40

1.3 C

1011.7 hpa

94 %

4.8 km/h aus 117

9.7 km/h aus SSW

0.4 C

-0.1 C

-0.1 C

1.2 C

0 W/m

0.00 mm

09:45

1.3 C

1011.6 hpa

94 %

4.8 km/h aus 117

9.7 km/h aus SSW

0.5 C

-0.1 C

0.0 C

1.3 C

0 W/m

0.00 mm

09:50

1.3 C

1011.6 hpa

94 %

6.4 km/h aus 116

9.7 km/h aus SSW

0.5 C

-0.7 C

-0.7 C

1.3 C

0 W/m

0.00 mm

09:55

1.3 C

1011.6 hpa

94 %

6.4 km/h aus 116

11.3 km/h aus SSW

0.5 C

-0.7 C

-0.7 C

1.3 C

0 W/m

0.00 mm

10:00

1.4 C

1011.5 hpa

94 %

6.4 km/h aus 117

14.5 km/h aus SSW

0.5 C

-0.6 C

-0.6 C

1.3 C

0 W/m

0.00 mm

10:05

1.4 C

1011.5 hpa

94 %

6.4 km/h aus 117

11.3 km/h aus SSW

0.6 C

-0.6 C

-0.5 C

1.4 C

0 W/m

0.00 mm

10:10

1.5 C

1011.5 hpa

94 %

4.8 km/h aus 118

9.7 km/h aus SSW

0.6 C

0.2 C

0.2 C

1.5 C

0 W/m

0.00 mm

10:15

1.5 C

1011.5 hpa

94 %

6.4 km/h aus 116

9.7 km/h aus SSW

0.6 C

-0.4 C

-0.4 C

1.5 C

0 W/m

0.00 mm

10:20

1.6 C

1011.5 hpa

94 %

4.8 km/h aus 116

8.0 km/h aus SSW

0.7 C

0.3 C

0.3 C

1.6 C

0 W/m

0.00 mm

10:25

1.6 C

1011.5 hpa

94 %

4.8 km/h aus 116

11.3 km/h aus SSW

0.7 C

0.3 C

0.3 C

1.6 C

0 W/m

0.00 mm

10:30

1.7 C

1011.5 hpa

94 %

4.8 km/h aus 116

8.0 km/h aus SSW

0.8 C

0.4 C

0.4 C

1.7 C

0 W/m

0.00 mm

10:35

1.8 C

1011.5 hpa

94 %

4.8 km/h aus 116

9.7 km/h aus SSW

0.9 C

0.5 C

0.5 C

1.8 C

0 W/m

0.00 mm

10:40

1.8 C

1011.5 hpa

94 %

4.8 km/h aus 115

9.7 km/h aus SSW

1.0 C

0.6 C

0.6 C

1.8 C

0 W/m

0.00 mm

10:45

1.9 C

1011.5 hpa

94 %

4.8 km/h aus 117

9.7 km/h aus SSW

1.1 C

0.7 C

0.7 C

1.9 C

0 W/m

0.00 mm

10:50

2.0 C

1011.5 hpa

94 %

3.2 km/h aus 117

8.0 km/h aus SW

1.1 C

1.6 C

1.6 C

2.0 C

0 W/m

0.00 mm

10:55

2.1 C

1011.5 hpa

94 %

4.8 km/h aus 117

11.3 km/h aus SW

1.2 C

0.9 C

0.9 C

2.1 C

0 W/m

0.00 mm

11:00

2.2 C

1011.6 hpa

94 %

6.4 km/h aus 117

14.5 km/h aus SW

1.3 C

0.3 C

0.3 C

2.2 C

0 W/m

0.00 mm

11:05

2.2 C

1011.6 hpa

94 %

6.4 km/h aus 117

11.3 km/h aus SW

1.3 C

0.3 C

0.3 C

2.2 C

0 W/m

0.00 mm

11:10

2.2 C

1011.6 hpa

94 %

8.0 km/h aus 117

17.7 km/h aus SW

1.4 C

-0.1 C

-0.1 C

2.2 C

0 W/m

0.00 mm

11:15

2.2 C

1011.5 hpa

94 %

6.4 km/h aus 118

14.5 km/h aus WSW

1.4 C

0.4 C

0.4 C

2.2 C

0 W/m

0.00 mm

11:20

2.3 C

1011.5 hpa

94 %

4.8 km/h aus 116

12.9 km/h aus WSW

1.4 C

1.1 C

1.1 C

2.3 C

0 W/m

0.00 mm

11:25

2.3 C

1011.5 hpa

94 %

6.4 km/h aus 117

16.1 km/h aus WSW

1.5 C

0.5 C

0.5 C

2.3 C

0 W/m

0.00 mm

11:30

2.4 C

1011.4 hpa

94 %

4.8 km/h aus 116

14.5 km/h aus WSW

1.6 C

1.3 C

1.3 C

2.4 C

0 W/m

0.00 mm

11:35

2.5 C

1011.4 hpa

94 %

6.4 km/h aus 116

16.1 km/h aus SSW

1.6 C

0.7 C

0.7 C

2.5 C

0 W/m

0.00 mm

11:40

2.6 C

1011.4 hpa

94 %

6.4 km/h aus 117

12.9 km/h aus SSW

1.7 C

0.8 C

0.8 C

2.6 C

0 W/m

0.00 mm

11:45

2.8 C

1011.5 hpa

94 %

4.8 km/h aus 117

8.0 km/h aus SW

1.9 C

1.7 C

1.7 C

2.8 C

0 W/m

0.00 mm

11:50

2.9 C

1011.5 hpa

94 %

6.4 km/h aus 117

11.3 km/h aus SW

2.0 C

1.2 C

1.2 C

2.9 C

0 W/m

0.00 mm

11:55

3.1 C

1011.5 hpa

94 %

4.8 km/h aus 116

12.9 km/h aus WSW

2.2 C

1.9 C

1.9 C

3.1 C

0 W/m

0.00 mm

12:00

3.2 C

1011.4 hpa

94 %

6.4 km/h aus 117

14.5 km/h aus WSW

2.3 C

1.6 C

1.6 C

3.2 C

0 W/m

0.00 mm

12:05

3.4 C

1011.4 hpa

94 %

8.0 km/h aus 117

17.7 km/h aus WSW

2.6 C

1.3 C

1.3 C

3.4 C

0 W/m

0.25 mm

12:10

3.6 C

1011.4 hpa

94 %

8.0 km/h aus 116

11.3 km/h aus WSW

2.7 C

1.4 C

1.4 C

3.6 C

0 W/m

0.00 mm

12:15

3.6 C

1011.1 hpa

94 %

6.4 km/h aus 116

14.5 km/h aus WSW

2.7 C

2.0 C

2.0 C

3.6 C

0 W/m

0.00 mm

12:20

3.6 C

1011.1 hpa

93 %

4.8 km/h aus 116

16.1 km/h aus W

2.6 C

2.6 C

2.6 C

3.6 C

0 W/m

0.00 mm

12:25

3.7 C

1011.1 hpa

93 %

9.7 km/h aus 117

17.7 km/h aus SW

2.6 C

1.2 C

1.2 C

3.7 C

0 W/m

0.00 mm

12:30

3.7 C

1010.8 hpa

93 %

9.7 km/h aus 116

19.3 km/h aus SW

2.7 C

1.2 C

1.2 C

3.7 C

0 W/m

0.00 mm

12:35

3.8 C

1010.8 hpa

93 %

9.7 km/h aus 116

16.1 km/h aus W

2.7 C

1.3 C

1.3 C

3.8 C

0 W/m

0.00 mm

12:40

3.7 C

1010.8 hpa

92 %

9.7 km/h aus 117

16.1 km/h aus WSW

2.5 C

1.2 C

1.2 C

3.7 C

0 W/m

0.00 mm

12:45

3.8 C

1010.8 hpa

92 %

12.9 km/h aus 116

22.5 km/h aus WSW

2.6 C

0.6 C

0.6 C

3.7 C

0 W/m

0.00 mm

12:50

3.7 C

1010.8 hpa

92 %

9.7 km/h aus 117

17.7 km/h aus WSW

2.5 C

1.2 C

1.2 C

3.7 C

0 W/m

0.00 mm

12:55

3.7 C

1010.8 hpa

92 %

11.3 km/h aus 117

19.3 km/h aus WSW

2.5 C

0.8 C

0.9 C

3.7 C

0 W/m

0.00 mm

13:00

3.7 C

1010.6 hpa

92 %

9.7 km/h aus 116

17.7 km/h aus W

2.5 C

1.1 C

1.2 C

3.6 C

0 W/m

0.00 mm

13:05

3.7 C

1010.6 hpa

92 %

9.7 km/h aus 116

17.7 km/h aus W

2.5 C

1.1 C

1.2 C

3.6 C

0 W/m

0.00 mm

13:10

3.6 C

1010.6 hpa

92 %

8.0 km/h aus 117

17.7 km/h aus WSW

2.4 C

1.4 C

1.5 C

3.6 C

0 W/m

0.00 mm

13:15

3.6 C

1010.6 hpa

92 %

8.0 km/h aus 117

16.1 km/h aus W

2.4 C

1.4 C

1.5 C

3.6 C

0 W/m

0.00 mm

13:20

3.6 C

1010.6 hpa

92 %

12.9 km/h aus 118

19.3 km/h aus WSW

2.4 C

0.4 C

0.4 C

3.6 C

0 W/m

0.00 mm

13:25

3.6 C

1010.6 hpa

92 %

9.7 km/h aus 116

17.7 km/h aus WSW

2.4 C

1.1 C

1.1 C

3.6 C

0 W/m

0.00 mm

13:30

3.7 C

1010.5 hpa

92 %

12.9 km/h aus 117

24.1 km/h aus WSW

2.5 C

0.4 C

0.5 C

3.6 C

0 W/m

0.00 mm

13:35

3.7 C

1010.5 hpa

91 %

14.5 km/h aus 117

20.9 km/h aus W

2.3 C

0.2 C

0.2 C

3.6 C

0 W/m

0.00 mm

13:40

3.7 C

1010.5 hpa

91 %

9.7 km/h aus 116

17.7 km/h aus WSW

2.3 C

1.1 C

1.2 C

3.6 C

0 W/m

0.00 mm

13:45

3.7 C

1010.5 hpa

91 %

11.3 km/h aus 117

20.9 km/h aus W

2.3 C

0.8 C

0.8 C

3.6 C

0 W/m

0.00 mm

13:50

3.7 C

1010.5 hpa

92 %

16.1 km/h aus 117

22.5 km/h aus WSW

2.5 C

-0.1 C

-0.1 C

3.6 C

0 W/m

0.00 mm

13:55

3.7 C

1010.5 hpa

91 %

14.5 km/h aus 117

24.1 km/h aus W

2.3 C

0.2 C

0.2 C

3.6 C

0 W/m

0.00 mm

14:00

3.7 C

1010.4 hpa

91 %

9.7 km/h aus 117

19.3 km/h aus W

2.3 C

1.1 C

1.2 C

3.6 C

0 W/m

0.00 mm

14:05

3.7 C

1010.4 hpa

91 %

11.3 km/h aus 117

19.3 km/h aus W

2.3 C

0.8 C

0.8 C

3.6 C

0 W/m

0.00 mm

14:10

3.6 C

1010.4 hpa

91 %

12.9 km/h aus 116

20.9 km/h aus W

2.3 C

0.4 C

0.4 C

3.6 C

0 W/m

0.00 mm

14:15

3.6 C

1010.1 hpa

91 %

11.3 km/h aus 117

17.7 km/h aus WSW

2.3 C

0.7 C

0.7 C

3.6 C

0 W/m

0.00 mm

14:20

3.6 C

1010.1 hpa

91 %

8.0 km/h aus 116

14.5 km/h aus WSW

2.3 C

1.4 C

1.5 C

3.6 C

0 W/m

0.00 mm

14:25

3.6 C

1010.1 hpa

91 %

8.0 km/h aus 117

16.1 km/h aus WSW

2.3 C

1.4 C

1.5 C

3.6 C

0 W/m

0.00 mm

14:30

3.6 C

1010.1 hpa

91 %

11.3 km/h aus 117

19.3 km/h aus W

2.2 C

0.6 C

0.7 C

3.5 C

0 W/m

0.00 mm

14:35

3.6 C

1010.1 hpa

91 %

9.7 km/h aus 117

16.1 km/h aus W

2.2 C

1.0 C

1.1 C

3.5 C

0 W/m

0.00 mm

14:40

3.6 C

1010.1 hpa

91 %

11.3 km/h aus 117

16.1 km/h aus WSW

2.2 C

0.6 C

0.7 C

3.5 C

0 W/m

0.00 mm

14:45

3.6 C

1010.2 hpa

91 %

8.0 km/h aus 117

17.7 km/h aus W

2.2 C

1.4 C

1.4 C

3.5 C

0 W/m

0.00 mm

14:50

3.5 C

1010.2 hpa

91 %

11.3 km/h aus 117

19.3 km/h aus W

2.2 C

0.6 C

0.6 C

3.4 C

0 W/m

0.00 mm

14:55

3.5 C

1010.2 hpa

91 %

9.7 km/h aus 117

16.1 km/h aus WSW

2.2 C

0.9 C

0.9 C

3.4 C

0 W/m

0.00 mm

15:00

3.5 C

1010.0 hpa

91 %

11.3 km/h aus 116

19.3 km/h aus W

2.2 C

0.6 C

0.6 C

3.4 C

0 W/m

0.00 mm

15:05

3.5 C

1010.0 hpa

91 %

9.7 km/h aus 117

19.3 km/h aus WSW

2.2 C

0.9 C

0.9 C

3.4 C

0 W/m

0.00 mm

15:10

3.6 C

1010.0 hpa

91 %

11.3 km/h aus 116

19.3 km/h aus WSW

2.2 C

0.6 C

0.7 C

3.5 C

0 W/m

0.00 mm

15:15

3.6 C

1009.9 hpa

91 %

12.9 km/h aus 117

22.5 km/h aus W

2.2 C

0.3 C

0.3 C

3.5 C

0 W/m

0.00 mm

15:20

3.6 C

1009.9 hpa

91 %

12.9 km/h aus 117

20.9 km/h aus WSW

2.2 C

0.3 C

0.3 C

3.5 C

0 W/m

0.00 mm

15:25

3.6 C

1009.9 hpa

91 %

11.3 km/h aus 117

19.3 km/h aus WSW

2.2 C

0.6 C

0.7 C

3.5 C

0 W/m

0.00 mm

15:30

3.6 C

1010.0 hpa

91 %

9.7 km/h aus 118

19.3 km/h aus W

2.2 C

1.0 C

1.1 C

3.5 C

0 W/m

0.00 mm

15:35

3.6 C

1010.0 hpa

91 %

9.7 km/h aus 117

14.5 km/h aus WSW

2.2 C

1.0 C

1.1 C

3.5 C

0 W/m

0.00 mm

15:40

3.5 C

1010.0 hpa

90 %

9.7 km/h aus 117

19.3 km/h aus W

2.0 C

0.9 C

0.9 C

3.4 C

0 W/m

0.00 mm

15:45

3.5 C

1010.0 hpa

90 %

12.9 km/h aus 117

20.9 km/h aus W

2.0 C

0.2 C

0.3 C

3.4 C

0 W/m

0.00 mm

15:50

3.5 C

1010.0 hpa

90 %

12.9 km/h aus 116

24.1 km/h aus WSW

2.0 C

0.2 C

0.3 C

3.4 C

0 W/m

0.00 mm

15:55

3.4 C

1010.0 hpa

90 %

11.3 km/h aus 111

19.3 km/h aus W

2.0 C

0.5 C

0.6 C

3.4 C

0 W/m

0.00 mm

16:00

3.4 C

1009.9 hpa

90 %

8.0 km/h aus 116

17.7 km/h aus WSW

2.0 C

1.3 C

1.3 C

3.4 C

0 W/m

0.00 mm

16:05

3.4 C

1009.9 hpa

90 %

9.7 km/h aus 113

22.5 km/h aus WSW

2.0 C

0.8 C

0.9 C

3.4 C

0 W/m

0.00 mm

16:10

3.4 C

1009.9 hpa

90 %

11.3 km/h aus 111

24.1 km/h aus WSW

2.0 C

0.5 C

0.6 C

3.4 C

0 W/m

0.00 mm

16:15

3.5 C

1009.9 hpa

90 %

11.3 km/h aus 116

20.9 km/h aus W

2.0 C

0.6 C

0.6 C

3.4 C

0 W/m

0.00 mm

16:20

3.5 C

1009.9 hpa

90 %

12.9 km/h aus 117

20.9 km/h aus WSW

2.0 C

0.2 C

0.3 C

3.4 C

0 W/m

0.00 mm

16:25

3.5 C

1009.9 hpa

90 %

9.7 km/h aus 116

19.3 km/h aus WSW

2.0 C

0.9 C

0.9 C

3.4 C

0 W/m

0.00 mm

16:30

3.5 C

1009.7 hpa

89 %

9.7 km/h aus 116

20.9 km/h aus SW

1.9 C

0.9 C

0.9 C

3.4 C

0 W/m

0.00 mm

16:35

3.6 C

1009.7 hpa

89 %

11.3 km/h aus 118

19.3 km/h aus WSW

1.9 C

0.6 C

0.7 C

3.5 C

0 W/m

0.00 mm

16:40

3.6 C

1009.7 hpa

89 %

9.7 km/h aus 117

16.1 km/h aus WSW

1.9 C

1.0 C

1.1 C

3.5 C

0 W/m

0.00 mm

16:45

3.6 C

1009.5 hpa

89 %

11.3 km/h aus 117

19.3 km/h aus SW

1.9 C

0.6 C

0.7 C

3.5 C

0 W/m

0.00 mm

16:50

3.6 C

1009.5 hpa

89 %

12.9 km/h aus 117

25.7 km/h aus W

1.9 C

0.3 C

0.3 C

3.5 C

0 W/m

0.00 mm

16:55

3.6 C

1009.5 hpa

88 %

14.5 km/h aus 116

27.4 km/h aus W

1.8 C

0.0 C

0.1 C

3.5 C

0 W/m

0.00 mm

17:00

3.5 C

1009.1 hpa

88 %

9.7 km/h aus 116

22.5 km/h aus W

1.7 C

0.9 C

0.9 C

3.4 C

0 W/m

0.00 mm

17:05

3.5 C

1009.1 hpa

88 %

9.7 km/h aus 117

17.7 km/h aus WSW

1.7 C

0.9 C

0.9 C

3.4 C

0 W/m

0.00 mm

17:10

3.5 C

1009.1 hpa

88 %

9.7 km/h aus 117

17.7 km/h aus WSW

1.7 C

0.9 C

0.9 C

3.4 C

0 W/m

0.00 mm

17:15

3.5 C

1008.9 hpa

88 %

8.0 km/h aus 116

16.1 km/h aus SSW

1.7 C

1.3 C

1.4 C

3.4 C

0 W/m

0.00 mm

17:20

3.4 C

1008.9 hpa

88 %

6.4 km/h aus 116

11.3 km/h aus WSW

1.6 C

1.7 C

1.8 C

3.4 C

0 W/m

0.00 mm

17:25

3.4 C

1008.9 hpa

88 %

9.7 km/h aus 116

19.3 km/h aus WSW

1.6 C

0.8 C

0.9 C

3.4 C

0 W/m

0.00 mm

17:30

3.4 C

1009.0 hpa

88 %

9.7 km/h aus 117

19.3 km/h aus SW

1.6 C

0.8 C

0.9 C

3.4 C

0 W/m

0.00 mm

17:35

3.4 C

1009.0 hpa

87 %

12.9 km/h aus 117

19.3 km/h aus WSW

1.5 C

0.1 C

0.2 C

3.3 C

0 W/m

0.00 mm

17:40

3.4 C

1009.0 hpa

87 %

11.3 km/h aus 118

20.9 km/h aus W

1.5 C

0.4 C

0.6 C

3.3 C

0 W/m

0.00 mm

17:45

3.4 C

1009.2 hpa

87 %

11.3 km/h aus 115

20.9 km/h aus WSW

1.5 C

0.4 C

0.6 C

3.3 C

0 W/m

0.00 mm

17:50

3.4 C

1009.2 hpa

88 %

12.9 km/h aus 115

24.1 km/h aus WSW

1.6 C

0.1 C

0.2 C

3.3 C

0 W/m

0.00 mm

17:55

3.4 C

1009.2 hpa

87 %

11.3 km/h aus 116

25.7 km/h aus WSW

1.4 C

0.3 C

0.4 C

3.3 C

0 W/m

0.00 mm

18:00

3.3 C

1008.9 hpa

87 %

11.3 km/h aus 117

22.5 km/h aus W

1.4 C

0.3 C

0.4 C

3.2 C

0 W/m

0.00 mm

18:05

3.3 C

1008.9 hpa

87 %

12.9 km/h aus 117

24.1 km/h aus WSW

1.4 C

0.0 C

0.1 C

3.2 C

0 W/m

0.00 mm

18:10

3.3 C

1008.9 hpa

87 %

12.9 km/h aus 117

24.1 km/h aus WSW

1.3 C

-0.1 C

0.0 C

3.2 C

0 W/m

0.00 mm

18:15

3.3 C

1008.9 hpa

88 %

11.3 km/h aus 115

24.1 km/h aus W

1.5 C

0.3 C

0.3 C

3.2 C

0 W/m

0.00 mm

18:20

3.3 C

1008.9 hpa

88 %

12.9 km/h aus 116

20.9 km/h aus WSW

1.5 C

-0.1 C

0.0 C

3.2 C

0 W/m

0.00 mm

18:25

3.2 C

1008.9 hpa

88 %

14.5 km/h aus 116

22.5 km/h aus WSW

1.4 C

-0.4 C

-0.3 C

3.2 C

0 W/m

0.00 mm

18:30

3.2 C

1008.9 hpa

88 %

12.9 km/h aus 117

19.3 km/h aus SW

1.4 C

-0.1 C

-0.1 C

3.2 C

0 W/m

0.00 mm

18:35

3.2 C

1008.9 hpa

88 %

9.7 km/h aus 116

19.3 km/h aus W

1.4 C

0.5 C

0.6 C

3.1 C

0 W/m

0.00 mm

18:40

3.2 C

1008.9 hpa

88 %

12.9 km/h aus 112

22.5 km/h aus WSW

1.4 C

-0.2 C

-0.1 C

3.1 C

0 W/m

0.00 mm

18:45

3.2 C

1008.8 hpa

88 %

11.3 km/h aus 114

24.1 km/h aus SW

1.4 C

0.2 C

0.2 C

3.1 C

0 W/m

0.00 mm

18:50

3.2 C

1008.8 hpa

88 %

12.9 km/h aus 116

20.9 km/h aus WSW

1.4 C

-0.2 C

-0.1 C

3.1 C

0 W/m

0.00 mm

18:55

3.2 C

1008.8 hpa

88 %

14.5 km/h aus 117

25.7 km/h aus WSW

1.4 C

-0.4 C

-0.4 C

3.1 C

0 W/m

0.00 mm

19:00

3.2 C

1008.8 hpa

88 %

12.9 km/h aus 117

22.5 km/h aus W

1.4 C

-0.2 C

-0.1 C

3.1 C

0 W/m

0.00 mm

19:05

3.2 C

1008.8 hpa

88 %

12.9 km/h aus 116

24.1 km/h aus W

1.4 C

-0.2 C

-0.1 C

3.1 C

0 W/m

0.00 mm

19:10

3.2 C

1008.8 hpa

88 %

12.9 km/h aus 115

24.1 km/h aus W

1.4 C

-0.2 C

-0.1 C

3.1 C

0 W/m

0.00 mm

19:15

3.2 C

1008.6 hpa

88 %

14.5 km/h aus 115

22.5 km/h aus WSW

1.4 C

-0.4 C

-0.4 C

3.1 C

0 W/m

0.00 mm

19:20

3.2 C

1008.6 hpa

88 %

12.9 km/h aus 117

20.9 km/h aus WSW

1.4 C

-0.2 C

-0.1 C

3.1 C

0 W/m

0.00 mm

19:25

3.2 C

1008.6 hpa

88 %

11.3 km/h aus 116

20.9 km/h aus W

1.4 C

0.2 C

0.2 C

3.1 C

0 W/m

0.00 mm

19:30

3.2 C

1008.4 hpa

88 %

9.7 km/h aus 115

20.9 km/h aus SW

1.4 C

0.5 C

0.6 C

3.1 C

0 W/m

0.00 mm

19:35

3.2 C

1008.4 hpa

88 %

11.3 km/h aus 117

24.1 km/h aus WSW

1.4 C

0.2 C

0.2 C

3.1 C

0 W/m

0.00 mm

19:40

3.2 C

1008.4 hpa

88 %

11.3 km/h aus 117

19.3 km/h aus WSW

1.4 C

0.2 C

0.2 C

3.1 C

0 W/m

0.00 mm

19:45

3.2 C

1008.0 hpa

89 %

11.3 km/h aus 117

22.5 km/h aus WSW

1.5 C

0.2 C

0.2 C

3.1 C

0 W/m

0.00 mm

19:50

3.2 C

1008.0 hpa

89 %

9.7 km/h aus 116

22.5 km/h aus WSW

1.5 C

0.5 C

0.6 C

3.1 C

0 W/m

0.00 mm

19:55

3.2 C

1008.0 hpa

89 %

9.7 km/h aus 115

22.5 km/h aus WSW

1.5 C

0.5 C

0.6 C

3.1 C

0 W/m

0.00 mm

20:00

3.2 C

1007.8 hpa

89 %

12.9 km/h aus 90

25.7 km/h aus WSW

1.5 C

-0.2 C

-0.1 C

3.1 C

0 W/m

0.00 mm

20:05

3.2 C

1007.8 hpa

89 %

11.3 km/h aus 99

20.9 km/h aus WSW

1.5 C

0.2 C

0.2 C

3.1 C

0 W/m

0.00 mm

20:10

3.2 C

1007.8 hpa

89 %

9.7 km/h aus 113

19.3 km/h aus W

1.6 C

0.6 C

0.6 C

3.2 C

0 W/m

0.00 mm

20:15

3.2 C

1007.4 hpa

89 %

9.7 km/h aus 114

17.7 km/h aus WSW

1.6 C

0.6 C

0.6 C

3.2 C

0 W/m

0.00 mm

20:20

3.2 C

1007.4 hpa

89 %

12.9 km/h aus 109

25.7 km/h aus WSW

1.6 C

-0.1 C

-0.1 C

3.2 C

0 W/m

0.00 mm

20:25

3.2 C

1007.4 hpa

89 %

12.9 km/h aus 111

22.5 km/h aus WSW

1.6 C

-0.1 C

-0.1 C

3.2 C

0 W/m

0.00 mm

20:30

3.2 C

1007.3 hpa

89 %

12.9 km/h aus 106

29.0 km/h aus SW

1.6 C

-0.1 C

-0.1 C

3.2 C

0 W/m

0.00 mm

20:35

3.2 C

1007.3 hpa

89 %

14.5 km/h aus 85

35.4 km/h aus SW

1.6 C

-0.4 C

-0.3 C

3.2 C

0 W/m

0.00 mm

20:40

3.2 C

1007.3 hpa

89 %

14.5 km/h aus 97

30.6 km/h aus W

1.6 C

-0.4 C

-0.3 C

3.2 C

0 W/m

0.00 mm

20:45

3.2 C

1007.0 hpa

89 %

12.9 km/h aus 101

25.7 km/h aus W

1.5 C

-0.2 C

-0.1 C

3.1 C

0 W/m

0.00 mm

20:50

3.2 C

1007.0 hpa

89 %

11.3 km/h aus 95

24.1 km/h aus W

1.5 C

0.2 C

0.2 C

3.1 C

0 W/m

0.00 mm

20:55

3.1 C

1007.0 hpa

89 %

12.9 km/h aus 91

22.5 km/h aus WSW

1.5 C

-0.2 C

-0.2 C

3.1 C

0 W/m

0.00 mm

21:00

3.1 C

1006.8 hpa

89 %

9.7 km/h aus 100

20.9 km/h aus WSW

1.4 C

0.4 C

0.4 C

3.0 C

0 W/m

0.00 mm

21:05

3.0 C

1006.8 hpa

89 %

11.3 km/h aus 82

20.9 km/h aus WSW

1.4 C

-0.1 C

0.0 C

2.9 C

0 W/m

0.00 mm

21:10

3.0 C

1006.8 hpa

89 %

11.3 km/h aus 100

24.1 km/h aus W

1.4 C

-0.1 C

0.0 C

2.9 C

0 W/m

0.00 mm

21:15

2.9 C

1006.8 hpa

89 %

14.5 km/h aus 107

25.7 km/h aus WSW

1.3 C

-0.7 C

-0.7 C

2.9 C

0 W/m

0.00 mm

21:20

2.9 C

1006.8 hpa

89 %

11.3 km/h aus 107

22.5 km/h aus SW

1.3 C

-0.1 C

-0.1 C

2.9 C

0 W/m

0.00 mm

21:25

2.9 C

1006.8 hpa

89 %

12.9 km/h aus 103

27.4 km/h aus SW

1.3 C

-0.5 C

-0.4 C

2.8 C

0 W/m

0.00 mm

21:30

2.8 C

1006.3 hpa

90 %

12.9 km/h aus 114

25.7 km/h aus SW

1.4 C

-0.6 C

-0.5 C

2.8 C

0 W/m

0.00 mm

21:35

2.8 C

1006.3 hpa

90 %

11.3 km/h aus 111

24.1 km/h aus WSW

1.3 C

-0.3 C

-0.3 C

2.7 C

0 W/m

0.00 mm

21:40

2.7 C

1006.3 hpa

90 %

12.9 km/h aus 114

22.5 km/h aus SW

1.2 C

-0.7 C

-0.7 C

2.7 C

0 W/m

0.00 mm

21:45

2.7 C

1005.8 hpa

90 %

12.9 km/h aus 117

27.4 km/h aus SW

1.2 C

-0.8 C

-0.7 C

2.6 C

0 W/m

0.00 mm

21:50

2.6 C

1005.8 hpa

90 %

14.5 km/h aus 115

24.1 km/h aus WSW

1.1 C

-1.2 C

-1.1 C

2.6 C

0 W/m

0.00 mm

21:55

2.6 C

1005.8 hpa

90 %

14.5 km/h aus 116

29.0 km/h aus SSW

1.1 C

-1.2 C

-1.2 C

2.5 C

0 W/m

0.00 mm

22:00

2.6 C

1005.3 hpa

90 %

14.5 km/h aus 111

27.4 km/h aus WSW

1.1 C

-1.2 C

-1.2 C

2.5 C

0 W/m

0.00 mm

22:05

2.5 C

1005.3 hpa

90 %

16.1 km/h aus 105

29.0 km/h aus SW

1.0 C

-1.6 C

-1.5 C

2.4 C

0 W/m

0.00 mm

22:10

2.4 C

1005.3 hpa

90 %

16.1 km/h aus 110

30.6 km/h aus SSW

1.0 C

-1.6 C

-1.6 C

2.4 C

0 W/m

0.00 mm

22:15

2.4 C

1004.8 hpa

90 %

14.5 km/h aus 110

25.7 km/h aus SW

0.9 C

-1.4 C

-1.4 C

2.3 C

0 W/m

0.25 mm

22:20

2.4 C

1004.8 hpa

90 %

12.9 km/h aus 95

24.1 km/h aus WSW

0.9 C

-1.1 C

-1.1 C

2.3 C

0 W/m

0.00 mm

22:25

2.3 C

1004.8 hpa

91 %

14.5 km/h aus 114

22.5 km/h aus SSW

1.0 C

-1.5 C

-1.4 C

2.3 C

0 W/m

0.00 mm

22:30

2.3 C

1004.5 hpa

91 %

17.7 km/h aus 110

30.6 km/h aus SSW

1.0 C

-2.0 C

-1.9 C

2.3 C

0 W/m

0.00 mm

22:35

2.3 C

1004.5 hpa

91 %

17.7 km/h aus 110

33.8 km/h aus WSW

1.0 C

-2.0 C

-1.9 C

2.3 C

0 W/m

0.00 mm

22:40

2.3 C

1004.5 hpa

91 %

16.1 km/h aus 110

32.2 km/h aus WSW

1.0 C

-1.8 C

-1.7 C

2.3 C

0 W/m

0.00 mm

22:45

2.3 C

1004.3 hpa

91 %

14.5 km/h aus 115

30.6 km/h aus SSW

1.0 C

-1.5 C

-1.4 C

2.3 C

0 W/m

0.00 mm

22:50

2.3 C

1004.3 hpa

91 %

17.7 km/h aus 108

32.2 km/h aus SSW

1.0 C

-2.0 C

-1.9 C

2.3 C

0 W/m

0.00 mm

22:55

2.3 C

1004.3 hpa

91 %

16.1 km/h aus 94

25.7 km/h aus SW

1.0 C

-1.8 C

-1.7 C

2.3 C

0 W/m

0.00 mm

23:00

2.3 C

1004.0 hpa

91 %

16.1 km/h aus 46

27.4 km/h aus SSW

1.0 C

-1.8 C

-1.7 C

2.3 C

0 W/m

0.00 mm

23:05

2.3 C

1004.0 hpa

91 %

17.7 km/h aus 55

32.2 km/h aus SSW

1.0 C

-2.0 C

-1.9 C

2.3 C

0 W/m

0.00 mm

23:10

2.4 C

1004.0 hpa

91 %

16.1 km/h aus 100

33.8 km/h aus SSW

1.1 C

-1.7 C

-1.6 C

2.3 C

0 W/m

0.00 mm

23:15

2.4 C

1003.7 hpa

91 %

14.5 km/h aus 91

27.4 km/h aus SW

1.1 C

-1.3 C

-1.3 C

2.4 C

0 W/m

0.25 mm

23:20

2.5 C

1003.7 hpa

91 %

17.7 km/h aus 99

32.2 km/h aus SSW

1.2 C

-1.8 C

-1.7 C

2.4 C

0 W/m

0.00 mm

23:25

2.5 C

1003.7 hpa

91 %

14.5 km/h aus 84

22.5 km/h aus SSW

1.2 C

-1.3 C

-1.2 C

2.4 C

0 W/m

0.25 mm

23:30

2.5 C

1003.3 hpa

91 %

16.1 km/h aus 94

29.0 km/h aus SSW

1.2 C

-1.6 C

-1.5 C

2.4 C

0 W/m

0.00 mm

23:35

2.5 C

1003.3 hpa

91 %

14.5 km/h aus 105

24.1 km/h aus SSW

1.2 C

-1.3 C

-1.2 C

2.4 C

0 W/m

0.00 mm

23:40

2.6 C

1003.3 hpa

92 %

14.5 km/h aus 106

29.0 km/h aus SSW

1.4 C

-1.2 C

-1.2 C

2.5 C

0 W/m

0.00 mm

23:45

2.6 C

1003.1 hpa

92 %

11.3 km/h aus 101

24.1 km/h aus SW

1.4 C

-0.6 C

-0.6 C

2.5 C

0 W/m

0.25 mm

23:50

2.6 C

1003.1 hpa

92 %

12.9 km/h aus 114

22.5 km/h aus WSW

1.4 C

-0.9 C

-0.9 C

2.5 C

0 W/m

0.00 mm

23:55

2.6 C

1003.1 hpa

92 %

12.9 km/h aus 116

27.4 km/h aus SW

1.4 C

-0.8 C

-0.8 C

2.6 C

0 W/m

0.00 mm